EN

Hourly Weather Allerona

Today, 23 January, Saturday

Time Temperature Precipitation Wind Pressure Humidity
00:00 +5°C° 0 mm 7 mps 710 mmHg 84%
01:00 +5°C° 0 mm 7 mps 710 mmHg 83%
02:00 +5°C° 0 mm 7 mps 709 mmHg 82%
03:00 +4°C° 0 mm 7 mps 709 mmHg 81%
04:00 +4°C° 0 mm 8 mps 709 mmHg 81%
05:00 +4°C° 0 mm 7 mps 709 mmHg 81%
06:00 +3°C° 0 mm 6 mps 708 mmHg 81%
07:00 +3°C° 0 mm 6 mps 708 mmHg 80%
08:00 +5°C° 0.1 mm 5 mps 709 mmHg 78%
09:00 +5°C° 0.1 mm 5 mps 709 mmHg 76%
10:00 +6°C° 0.1 mm 5 mps 709 mmHg 74%
11:00 +5°C° 0.1 mm 6 mps 709 mmHg 71%
12:00 +5°C° 0.1 mm 7 mps 709 mmHg 68%
13:00 +6°C° 0.1 mm 8 mps 710 mmHg 66%
14:00 +6°C° 0.1 mm 8 mps 709 mmHg 68%
15:00 +5°C° 0.1 mm 7 mps 709 mmHg 71%
16:00 +5°C° 0.1 mm 6 mps 709 mmHg 73%
17:00 +5°C° 0.1 mm 6 mps 709 mmHg 76%
18:00 +5°C° 0.1 mm 5 mps 709 mmHg 78%
19:00 +5°C° 0.1 mm 5 mps 709 mmHg 81%
20:00 +3°C° 0.4 mm 5 mps 709 mmHg 82%
21:00 +4°C° 0.4 mm 4 mps 709 mmHg 84%
22:00 +4°C° 0.4 mm 4 mps 709 mmHg 85%
23:00 +3°C° 0.1 mm 5 mps 710 mmHg 83%

Tomorrow, 24 January, Sunday

Time Temperature Precipitation Wind Pressure Humidity
00:00 +3°C° 0.1 mm 5 mps 710 mmHg 81%
01:00 +2°C° 0.1 mm 6 mps 710 mmHg 79%
02:00 +2°C° 0 mm 5 mps 710 mmHg 78%
03:00 +3°C° 0 mm 4 mps 710 mmHg 76%
04:00 +2°C° 0 mm 3 mps 709 mmHg 75%
05:00 +3°C° 0 mm 2 mps 709 mmHg 78%
06:00 +3°C° 0 mm 2 mps 710 mmHg 80%
07:00 +3°C° 0 mm 2 mps 710 mmHg 83%
08:00 +4°C° 0 mm 2 mps 709 mmHg 84%
09:00 +5°C° 0 mm 2 mps 709 mmHg 85%
10:00 +6°C° 0 mm 2 mps 709 mmHg 85%
11:00 +7°C° 0.8 mm 1 mps 709 mmHg 88%
12:00 +7°C° 0.8 mm 1 mps 708 mmHg 90%
13:00 +7°C° 0.8 mm 1 mps 708 mmHg 93%
14:00 +6°C° 0.3 mm 2 mps 708 mmHg 90%
15:00 +6°C° 0.3 mm 2 mps 708 mmHg 87%
16:00 +5°C° 0.3 mm 3 mps 709 mmHg 83%
17:00 +5°C° 0.1 mm 2 mps 709 mmHg 86%
18:00 +4°C° 0.1 mm 2 mps 709 mmHg 88%
19:00 +5°C° 0.1 mm 1 mps 710 mmHg 90%
20:00 +4°C° 0.1 mm 1 mps 710 mmHg 91%
21:00 +4°C° 0.1 mm 1 mps 711 mmHg 92%
22:00 +4°C° 0.1 mm 1 mps 711 mmHg 93%
23:00 +4°C° 0 mm 1 mps 711 mmHg 92%

Day after tomorrow, 25 January, Monday

Time Temperature Precipitation Wind Pressure Humidity
00:00 +3°C° 0 mm 1 mps 711 mmHg 90%
01:00 +2°C° 0 mm 2 mps 712 mmHg 88%
02:00 +3°C° 0.4 mm 2 mps 711 mmHg 87%
03:00 +2°C° 0.4 mm 3 mps 711 mmHg 86%
04:00 +1°C° 0.4 mm 4 mps 711 mmHg 85%
05:00 +1°C° 0.2 mm 4 mps 711 mmHg 85%
06:00 0°C° 0.2 mm 4 mps 711 mmHg 85%
07:00 0°C° 0.2 mm 4 mps 711 mmHg 84%
08:00 +1°C° 0.2 mm 4 mps 712 mmHg 85%
09:00 +1°C° 0.2 mm 4 mps 713 mmHg 85%
10:00 +3°C° 0.2 mm 4 mps 713 mmHg 85%
11:00 +4°C° 0.1 mm 4 mps 714 mmHg 79%
12:00 +4°C° 0.1 mm 4 mps 715 mmHg 73%
13:00 +5°C° 0.1 mm 4 mps 716 mmHg 67%
14:00 +5°C° 0.4 mm 3 mps 717 mmHg 69%
15:00 +4°C° 0.4 mm 3 mps 717 mmHg 71%
16:00 +4°C° 0.4 mm 2 mps 718 mmHg 74%
17:00 +3°C° 0.1 mm 2 mps 719 mmHg 77%
18:00 +3°C° 0.1 mm 1 mps 719 mmHg 80%
19:00 +2°C° 0.1 mm 1 mps 720 mmHg 83%
20:00 +1°C° 0 mm 0 mps 720 mmHg 82%
21:00 +1°C° 0 mm 0 mps 720 mmHg 82%
22:00 0°C° 0 mm 0 mps 721 mmHg 82%
23:00 0°C° 0 mm 0 mps 721 mmHg 81%

26 January, Tuesday

Time Temperature Precipitation Wind Pressure Humidity
00:00 0°C° 0 mm 0 mps 721 mmHg 80%
01:00 0°C° 0 mm 0 mps 721 mmHg 79%
02:00 0°C° 0 mm 0 mps 721 mmHg 79%
03:00 0°C° 0 mm 0 mps 721 mmHg 78%
04:00 -1°C° 0 mm 0 mps 721 mmHg 78%
05:00 -1°C° 0 mm 0 mps 721 mmHg 77%
06:00 -1°C° 0 mm 0 mps 722 mmHg 76%
07:00 -1°C° 0 mm 0 mps 722 mmHg 75%
08:00 +1°C° 0 mm 0 mps 722 mmHg 72%
09:00 +2°C° 0 mm 0 mps 723 mmHg 68%
10:00 +4°C° 0 mm 0 mps 724 mmHg 64%
11:00 +6°C° 0 mm 1 mps 724 mmHg 61%
12:00 +7°C° 0 mm 1 mps 724 mmHg 57%
13:00 +8°C° 0 mm 1 mps 724 mmHg 53%
14:00 +8°C° 0 mm 1 mps 724 mmHg 56%
15:00 +8°C° 0 mm 1 mps 724 mmHg 60%
16:00 +7°C° 0 mm 1 mps 724 mmHg 64%
17:00 +6°C° 0 mm 1 mps 724 mmHg 69%
18:00 +4°C° 0 mm 1 mps 724 mmHg 75%
19:00 +2°C° 0 mm 1 mps 724 mmHg 81%
20:00 +2°C° 0 mm 1 mps 724 mmHg 81%
21:00 +1°C° 0 mm 0 mps 724 mmHg 81%
22:00 0°C° 0 mm 0 mps 725 mmHg 81%
23:00 +1°C° 0 mm 0 mps 724 mmHg 79%

27 January, Wednesday

Time Temperature Precipitation Wind Pressure Humidity
00:00 +1°C° 0 mm 0 mps 724 mmHg 78%
01:00 +2°C° 0 mm 1 mps 724 mmHg 76%
02:00 +2°C° 0 mm 1 mps 724 mmHg 75%
03:00 +2°C° 0 mm 1 mps 724 mmHg 75%
04:00 +2°C° 0 mm 1 mps 723 mmHg 74%
05:00 +1°C° 0 mm 1 mps 723 mmHg 73%
06:00 +1°C° 0 mm 1 mps 723 mmHg 71%
07:00 +1°C° 0 mm 1 mps 723 mmHg 70%
08:00 +2°C° 0 mm 1 mps 723 mmHg 65%
09:00 +3°C° 0 mm 0 mps 723 mmHg 61%
10:00 +4°C° 0 mm 0 mps 723 mmHg 57%
11:00 +6°C° 0 mm 1 mps 723 mmHg 56%
12:00 +7°C° 0 mm 1 mps 723 mmHg 55%
13:00 +8°C° 0 mm 1 mps 723 mmHg 54%
14:00 +8°C° 0 mm 1 mps 723 mmHg 59%
15:00 +8°C° 0 mm 1 mps 723 mmHg 63%
16:00 +8°C° 0 mm 1 mps 723 mmHg 68%
17:00 +6°C° 0 mm 1 mps 723 mmHg 73%
18:00 +5°C° 0 mm 1 mps 724 mmHg 78%
19:00 +3°C° 0 mm 1 mps 724 mmHg 83%
20:00 +3°C° 0 mm 1 mps 724 mmHg 83%
21:00 +2°C° 0 mm 1 mps 724 mmHg 84%
22:00 +2°C° 0 mm 1 mps 725 mmHg 85%
23:00 +2°C° 0 mm 1 mps 725 mmHg 86%

28 January, Thursday

Time Temperature Precipitation Wind Pressure Humidity
00:00 +2°C° 0 mm 1 mps 725 mmHg 87%
01:00 +2°C° 0 mm 1 mps 725 mmHg 88%
02:00 +2°C° 0 mm 1 mps 725 mmHg 88%
03:00 +1°C° 0 mm 1 mps 725 mmHg 89%
04:00 0°C° 0 mm 0 mps 725 mmHg 89%
05:00 0°C° 0 mm 0 mps 725 mmHg 89%
06:00 0°C° 0 mm 0 mps 725 mmHg 88%
07:00 0°C° 0 mm 0 mps 725 mmHg 88%
08:00 +3°C° 0 mm 1 mps 725 mmHg 83%
09:00 +4°C° 0 mm 1 mps 726 mmHg 79%
10:00 +5°C° 0 mm 1 mps 726 mmHg 74%
11:00 +6°C° 0 mm 2 mps 726 mmHg 73%
12:00 +7°C° 0 mm 2 mps 726 mmHg 71%
13:00 +8°C° 0 mm 2 mps 725 mmHg 69%
14:00 +7°C° 0 mm 2 mps 725 mmHg 74%
15:00 +7°C° 0 mm 2 mps 725 mmHg 80%
16:00 +6°C° 0 mm 2 mps 724 mmHg 85%
17:00 +6°C° 0 mm 2 mps 724 mmHg 88%
18:00 +5°C° 0 mm 2 mps 723 mmHg 90%
19:00 +5°C° 0 mm 2 mps 723 mmHg 93%
Show more